Regional Weather Roundup
Issued by NWS

Home | Current Version | Previous Version | Graphics & Text | Print | Product List | Glossary Off
Versions: 1 2 3 4 5 6 7 8 9 10 11 12 13 14 15 16 17 18 19 20 21 22 23 24 25 26 27 28 29 30 31 32 33 34 35 36 37 38 39 40 41 42 43 44 45 46 47 48 49 50

000
ASUS43 KFSD 261102
RWRSD

WEATHER ROUNDUP FOR SOUTH DAKOTA
NATIONAL WEATHER SERVICE SIOUX FALLS SD
600 AM CDT MON SEP 26 2016

NOTE: "FAIR" INDICATES FEW OR NO CLOUDS BELOW 12,000 FEET WITH NO
SIGNIFICANT WEATHER AND/OR OBSTRUCTIONS TO VISIBILITY.


SDZ001>005-009-010-012>017-261200-
NORTHWEST AND NORTH CENTRAL SOUTH DAKOTA

CITY           SKY/WX    TMP DP  RH WIND       PRES   REMARKS
BUFFALO          N/A     42  37  82 W10       30.18S
FAITH            N/A     46  39  76 W10       30.22F
MOBRIDGE       CLEAR     45  38  76 NW12      30.16F
$$

SDZ012>016-024>037-041>051-057-063-072>074-261200-
SOUTHWEST AND SOUTH CENTRAL SOUTH DAKOTA

CITY           SKY/WX    TMP DP  RH WIND       PRES   REMARKS
RAPID CTY ARPT CLEAR     39  33  79 W3        30.27F
PIERRE         CLEAR     43  35  73 SW8       30.20S
CUSTER         CLOUDY    40  30  67 CALM      30.35S
ELLSWORTH AFB  CLEAR     47  34  60 W2        30.26F
PHILIP         CLEAR     43  35  73 W10       30.25F
PINE RIDGE     CLEAR     33  28  81 W3        30.31S
WINNER         FAIR      49  35  58 W8        30.24S
$$

SDZ004>011-016>023-039-040-261200-
NORTHEAST SOUTH DAKOTA

CITY           SKY/WX    TMP DP  RH WIND       PRES   REMARKS
ABERDEEN       PTCLDY    41  34  76 SW7       30.13F
WATERTOWN      CLEAR     47  36  65 W10       30.10S
SISSETON         N/A     50  35  56 NW18      30.04S
$$

SDZ017-020-022-023-036>040-048>070-261200-
SOUTHEAST SOUTH DAKOTA

CITY           SKY/WX    TMP DP  RH WIND       PRES   REMARKS
SIOUX FALLS    CLEAR     43  36  76 W7        30.15S
HURON          CLEAR     44  35  70 W9        30.16S
CHAMBERLAIN    CLEAR     47  38  69 W10       30.22S
MITCHELL       PTCLDY    44  36  73 W7        30.18F
YANKTON        CLEAR     48  36  61 W8        30.19S
$$

ABBREVIATIONS USED IN REMARKS
   TC - TEMPERATURE IN CELSIUS
  WCI - WIND CHILL INDEX
   HX - HEAT INDEX
  VSB - VISIBILITY





USA.gov is the U.S. government's official web portal to all federal, state and local government web resources and services.